#timestamp,LO_Frequency,Hit,StdDev 
1690268435.3,286046998.5,N
1690268455.1,286046999.4,P
1690268475.9,286046999.2,N
1690268495.7,286046999.4,N
1690268515.6,286046996.5,Y
1690268535.4,286046998.6,P
1690268555.2,286046998.1,P
1690268575.1,286047000.6,N
1690268576.0,286047000.6,N
1690268595.8,286047000.7,N
1690268615.6,286046998.5,N
1690268635.5,286046998.2,N
1690268655.3,286046998.2,N
1690268675.2,286046998.6,N
1690268695.9,286046998.4,N
1690268715.7,286046999.0,N
1690268735.6,286046998.7,N
1690268755.4,286046998.3,N
1690268775.2,286046999.0,N
1690268795.1,286046998.8,N
1690268796.0,286046998.8,N
1690268815.8,286046998.7,N
1690268835.7,286046998.7,N
1690268855.5,286046996.6,Y
1690268875.3,286047001.2,P
1690268895.2,286047001.2,N
1690268915.0,286047001.1,N
1690268915.9,286047001.1,N
1690268935.7,286047001.2,N
1690268955.6,286047000.7,N
1690268975.4,286047000.8,N
1690268995.3,286047001.0,N
1690269015.1,286047000.7,N
1690269016.0,286047000.7,N
1690269035.8,286047000.9,N
1690269055.7,286047001.2,N
1690269075.5,286047000.5,N
1690269095.3,286047000.5,N
1690269115.2,286047000.8,N
1690269135.0,286047000.9,N
1690269135.9,286047000.9,N
1690269155.8,286047000.4,N
1690269175.6,286046999.9,N
1690269195.4,286047000.6,N
1690269215.3,286047000.6,N
1690269235.1,286047000.8,N
1690269255.9,286047000.0,N
1690269275.7,286047000.3,N
1690269295.5,286047000.2,N
1690269315.4,286047000.2,N
1690269335.2,286047000.0,N
1690269355.1,286046999.9,N
1690269356.0,286046999.9,N
1690269375.8,286047000.6,N
1690269395.7,286047000.1,N
1690269415.5,286047000.3,N
1690269435.3,286047000.5,N
1690269455.2,286047000.2,N
1690269475.0,286047002.7,Y
1690269475.9,286047002.7,P
1690269495.7,286047000.7,N
1690269515.6,286047001.0,N
1690269535.4,286047000.7,N
1690269555.3,286047001.2,N
1690269575.1,286047000.3,N
1690269576.0,286047000.3,N
1690269595.8,286047000.6,N
1690269615.7,286047000.6,N
1690269635.5,286046999.9,N
1690269655.3,286047000.0,N
1690269675.2,286047000.3,N
1690269695.0,286047000.5,N
1690269695.9,286047000.5,N
1690269715.8,286047000.8,N
1690269735.6,286047000.6,N
1690269755.4,286047000.8,N
1690269775.3,286047001.0,N
1690269795.1,286047000.2,N
1690269815.8,286047001.0,N
1690269835.7,286047001.2,N
1690269855.5,286047000.4,N
1690269875.4,286047001.1,N
1690269895.2,286047000.9,N
1690269915.0,286047000.6,N
1690269915.9,286047000.6,N
1690269935.8,286047000.6,N
1690269955.6,286047000.7,N
1690269975.5,286047002.8,Y
1690269995.3,286047002.7,P
1690270015.1,286047000.6,N
1690270035.9,286047000.3,N
1690270055.7,286047002.0,N
1690270075.5,286047002.6,N
1690270095.4,286047002.5,N
1690270115.2,286047002.2,N
1690270135.1,286047002.0,N
1690270136.0,286047002.0,N
1690270155.8,286047002.2,N
1690270175.6,286047002.1,N
1690270195.5,286047002.2,N
1690270215.3,286047002.2,N
1690270235.2,286047002.4,Y
1690270255.9,286046999.7,P
1690270275.7,286046998.2,N
1690270295.6,286046998.2,N
1690270315.4,286046998.5,N
1690270335.2,286046998.1,N
1690270355.1,286047001.2,N
1690270356.0,286047001.2,N
1690270375.8,286047001.0,N
1690270395.7,286047000.8,N
1690270415.5,286047001.0,N
1690270435.3,286046998.5,N
1690270455.2,286046999.0,N
1690270475.0,286046998.1,N
1690270475.9,286046998.1,N
1690270495.7,286046998.2,N
1690270515.6,286046999.0,N
1690270535.4,286046998.3,N
1690270555.3,286046998.7,N
1690270575.1,286046999.4,N
1690270576.0,286046999.4,N
1690270595.8,286046999.6,N
1690270615.7,286046996.5,N
1690270635.5,286046998.3,N
1690270655.3,286047000.7,N
1690270675.2,286047001.0,N
1690270695.0,286047002.8,N
1690270695.9,286047002.8,N
1690270715.8,286047000.5,N
1690270735.6,286047000.7,N
1690270755.4,286046998.1,N
1690270775.3,286046998.8,N
1690270795.1,286046999.1,N
1690270815.9,286046996.5,N
1690270835.7,286046999.5,N
1690270855.5,286046999.6,N
1690270875.4,286046999.5,N
1690270895.2,286046999.6,N
1690270915.0,286046996.5,N
1690270916.0,286046996.5,N
1690270935.8,286046999.2,N
1690270955.6,286046999.6,N
1690270975.5,286046996.5,N
1690270995.3,286046999.1,N
1690271015.1,286046996.6,N
1690271035.9,286046997.1,N
1690271055.7,286046997.2,N
1690271075.6,286046996.6,N
1690271095.4,286046996.6,N
1690271115.2,286046996.8,N
1690271135.1,286046999.6,N
1690271136.0,286046999.6,N
1690271155.8,286046996.9,N
1690271175.6,286046997.4,N
1690271195.5,286046997.4,N
1690271215.3,286046996.8,N
1690271235.2,286046996.7,N
1690271255.9,286046996.6,N
1690271275.7,286046996.6,N
1690271295.6,286046997.0,N
1690271315.5,286046997.1,N
1690271335.4,286046997.7,N
1690271355.2,286046995.3,Y
1690271375.1,286046998.2,P
1690271376.0,286046998.2,P
1690271395.8,286046999.3,P
1690271415.7,286046999.4,N
1690271435.5,286046999.3,N
1690271455.3,286046998.6,N
1690271475.2,286046999.3,N
1690271495.0,286046998.9,N
1690271495.9,286046998.9,N
1690271515.8,286046998.9,N
1690271535.6,286046998.9,N
1690271555.4,286046999.3,N
1690271575.3,286046998.7,N
1690271595.1,286046998.7,N
1690271615.9,286046998.8,N
1690271635.7,286046998.8,N
1690271655.5,286046998.7,N
1690271675.4,286046998.8,N
1690271695.2,286046998.3,Y
1690271715.0,286047000.5,P
1690271716.0,286047000.5,N
1690271735.8,286047001.0,N
1690271755.6,286047001.1,N
1690271775.5,286047000.3,N
1690271795.3,286047000.7,N
1690271815.1,286047000.8,N
1690271835.9,286047001.2,N
1690271855.7,286046998.6,N
1690271875.6,286046999.0,N
1690271895.4,286046998.4,N
1690271915.2,286046999.4,N
1690271935.1,286046996.6,Y
1690271936.0,286046996.6,P
1690271955.8,286046998.7,N
1690271975.6,286046999.3,N
1690271995.5,286046999.3,N
